Nashville, TN

10:05 AM CDT on April 22, 2018 (GMT -0500)
Nashville International

Weather History for KBNA - April, 2013

Change the Weather History Date:

Wednesday, April 17, 2013

  Actual Average Record
Temperature  
Mean Temperature 77 °F 60 °F  
Max Temperature 88 °F 71 °F 90 °F (1955)
Min Temperature 66 °F 48 °F 26 °F (1875)
Degree Days  
Heating Degree Days 0    
Month to date heating degree days 116  
Since 1 July heating degree days 3364  
Cooling Degree Days 12    
Month to date cooling degree days 37  
Year to date cooling degree days 42  
Growing Degree Days 27 (Base 50)    
Moisture  
Dew Point 63 °F    
Average Humidity 64    
Maximum Humidity 87    
Minimum Humidity 40    
Precipitation  
Precipitation 0.00 in 0.13 in 1.43 in (1982)
Month to date precipitation 2.13 2.06  
Year to date precipitation 16.17 13.86  
Snow  
Snow 0.00 in - 0.00 in (2002)
Month to date snowfall 0.0  
Since 1 July snowfall 1.3  
Snow Depth 0.00 in    
Sea Level Pressure  
Sea Level Pressure 30.06 in    
Wind  
Wind Speed 10 mph (South)    
Max Wind Speed 24 mph    
Max Gust Speed 30 mph    
Visibility 10 miles    
Events      
T = Trace of Precipitation, MM = Missing Value Source: NWS Daily Summary

Daily Weather History Graph

Daily Weather History Graph

Search for Another Location

Airport or City:

Astronomy

Apr. 17, 2013 Rise Set
Actual Time 6:10 AM CDT 7:22 PM CDT
Civil Twilight 5:43 AM CDT 7:49 PM CDT
Nautical Twilight 5:12 AM CDT 8:20 PM CDT
Astronomical Twilight 4:39 AM CDT 8:53 PM CDT
Moon 11:27 AM CDT (4/17) 12:56 AM CDT (4/17)
Length of Visible Light 14h 05m
Length of Day
13h 11m
Waxing Crescent, 42% of the Moon is Illuminated
Apr 17
Waxing Crescent
Apr 18
First Quarter
Apr 25
Full
May 2
Last Quarter
May 9
New

Hourly Weather History & Observations

Time (CDT) Temp. Heat Index Dew Point Humidity Pressure Visibility Wind Dir Wind Speed Gust Speed Precip Events Conditions
12:53 AM 70.0 °F - 64.0 °F 81% 30.09 in 10.0 mi South 3.5 mph - N/A   Clear
1:53 AM 71.1 °F - 64.9 °F 81% 30.10 in 10.0 mi South 5.8 mph - N/A   Mostly Cloudy
2:53 AM 70.0 °F - 64.0 °F 81% 30.09 in 10.0 mi South 3.5 mph - N/A   Scattered Clouds
3:53 AM 68.0 °F - 63.0 °F 84% 30.09 in 10.0 mi SSE 4.6 mph - N/A   Partly Cloudy
4:53 AM 69.1 °F - 64.0 °F 84% 30.09 in 10.0 mi Calm Calm - N/A   Scattered Clouds
5:53 AM 68.0 °F - 63.0 °F 84% 30.12 in 10.0 mi ESE 4.6 mph - N/A   Scattered Clouds
6:53 AM 66.9 °F - 63.0 °F 87% 30.14 in 10.0 mi ESE 5.8 mph - N/A   Scattered Clouds
7:53 AM 71.1 °F - 64.9 °F 81% 30.14 in 10.0 mi South 8.1 mph - N/A   Scattered Clouds
8:53 AM 75.2 °F - 66.2 °F 73% 30.14 in 10.0 mi South 5.8 mph - N/A   Scattered Clouds
9:53 AM 80.1 °F 82.3 °F 66.9 °F 64% 30.12 in 10.0 mi South 9.2 mph - N/A   Scattered Clouds
10:53 AM 82.0 °F 83.8 °F 64.9 °F 56% 30.11 in 10.0 mi South 15.0 mph 20.7 mph N/A   Mostly Cloudy
11:53 AM 82.9 °F 84.4 °F 64.0 °F 53% 30.10 in 10.0 mi South 16.1 mph 21.9 mph N/A   Mostly Cloudy
12:53 PM 84.9 °F 85.9 °F 63.0 °F 48% 30.08 in 10.0 mi SSW 10.4 mph 20.7 mph N/A   Scattered Clouds
1:53 PM 84.9 °F 85.9 °F 63.0 °F 48% 30.06 in 10.0 mi SSW 10.4 mph - N/A   Scattered Clouds
2:53 PM 87.1 °F 87.5 °F 62.1 °F 43% 30.03 in 10.0 mi South 10.4 mph - N/A   Mostly Cloudy
3:53 PM 87.1 °F 87.0 °F 61.0 °F 41% 30.01 in 10.0 mi South 12.7 mph - N/A   Mostly Cloudy
4:53 PM 86.0 °F 86.1 °F 61.0 °F 43% 29.99 in 10.0 mi South 6.9 mph - N/A   Mostly Cloudy
5:53 PM 78.1 °F - 61.0 °F 56% 29.99 in 10.0 mi SE 16.1 mph 29.9 mph N/A   Mostly Cloudy
6:53 PM 75.0 °F - 60.1 °F 60% 29.99 in 10.0 mi SSE 10.4 mph - N/A   Mostly Cloudy
7:53 PM 73.9 °F - 60.1 °F 62% 29.98 in 10.0 mi SSE 9.2 mph - N/A   Mostly Cloudy
8:53 PM 72.0 °F - 60.1 °F 66% 29.99 in 10.0 mi SSE 13.8 mph 23.0 mph N/A   Mostly Cloudy
9:53 PM 71.1 °F - 60.1 °F 68% 29.98 in 10.0 mi South 11.5 mph - N/A   Mostly Cloudy
10:53 PM 71.1 °F - 61.0 °F 70% 29.97 in 10.0 mi South 11.5 mph - N/A   Mostly Cloudy
11:53 PM 71.1 °F - 61.0 °F 70% 29.96 in 10.0 mi South 18.4 mph - N/A   Partly Cloudy